Location: Bauerbach
(50.4985°N, 10.3912°E)
Time: 23:56:02
(UTC+00:00)

Cosmos 1758 - Pass Details

Date: 13 January 2026
Orbit: 479 x 500 km, 82.5° (Epoch: 16 February)

Event Time Altitude Azimuth Distance (km) Brightness Sun altitude
Rises 05:47:41 0° 195° (SSW) 2,584 6.8 -13.3°
Reaches altitude 10° 05:49:48 10° 198° (SSW) 1,702 5.8 -12.9°
Maximum altitude 05:53:30 67° 282° (WNW) 547 3.0 -12.4°
Drops below altitude 10° 05:57:14 10° 5° (N) 1,705 5.7 -11.8°
Sets 05:59:22 0° 9° (N) 2,589 6.6 -11.5°
